Location: Unspecified
(0.0000°N, 0.0000°E)
Time: 02:18:51
(UTC+00:00)

CORVUS BC2 - Pass Details

Date: 22 February 2026
Orbit: 540 x 560 km, 97.4° (Epoch: 6 March)

Event Time Altitude Azimuth Distance (km) Brightness Sun altitude
Rises 04:05:47 0° 159° (SSE) 2,745 ? -31.4°
Reaches altitude 10° 04:07:58 10° 154° (SSE) 1,847 ? -30.8°
Enters shadow 04:09:37 23° 143° (SE) 1,223 ? -30.4°
